Vertical_Velocity
-5 -4 -6 -5 -2 -2 -3 -3 -2 -2 -2 -1 -1 -2 -2 0 1 2 0 0 5 -1 3 4 1 1 5 2 -2 -0 2 1 1 2 -1 -4 -4 -1 -4 -1 4 4 1
-1 -3 -3 -1 -3 -6 -3 -2 -2 -3 -3 -3 -0 1 -2 -1 -1 -0 -2 -2 3 -2 2 6 2 -2 1 2 0 -2 -2 4 -0 1 1 -1 -2 -1 -3 -3 1 3 2
-4 -3 -1 -4 -4 -2 -4 -2 -3 -2 -3 -5 -4 1 -2 -1 -2 -1 5 -4 -1 5 -3 5 4 3 -1 -4 4 -3 -0 1 0 -1 -2 -0 -3 -1 -3 -4 -1 -0 1
-3 -4 -4 -1 -1 -3 -3 -3 -5 -3 -2 -3 -7 -1 -1 -2 -1 -0 -4 2 0 -2 2 -4 6 2 -1 0 2 1 -4 2 2 4 4 -2 -2 -2 -2 0 -2 -1 -1
-1 -6 -5 -2 -2 -1 -1 -4 -3 -3 -3 -2 -4 -8 -1 -2 -1 -1 -1 -9 -4 0 1 1 -1 7 0 -1 1 -0 2 4 4 5 3 0 -3 -3 -3 -4 -2 -4 -0
-1 -1 -4 -5 -3 -3 -0 1 -4 1 -4 -6 -4 -7 -6 -2 -0 -3 -3 2 -1 -0 2 -1 2 -2 5 -3 -2 4 3 1 -1 0 4 -2 3 -2 -1 -0 -0 -1 -3
2 1 -1 -5 -4 -4 -3 0 -2 -6 1 -3 -6 -4 -8 -7 -5 -3 -8 -5 -3 -2 3 1 -1 -1 -1 3 -2 -1 2 42 2 1 1 8 -0 -5 0 -0 -1 -1 -0
2 3 4 1 -2 -4 -3 -0 -1 -3 -2 -0 -3 -1 -12 -17 3 -2 5 -1 2 13 1 2 5 1 1 1 -3 -3 -3 -3 19 -3 1 2 -2 -2 -1 -2 1 0 -1
-4 -2 1 4 3 1 -2 -2 -1 2 -4 2 4 -1 -2 3 -9 1 9 7 10 -5 -0 -4 8 4 -2 5 3 -0 2 -4 -1 -1 0 2 3 2 -2 -3 -3 3 -1
-3 -4 -4 0 1 1 -3 -3 -2 -1 0 -3 0 6 10 6 1 -17 3 8 22 14 -0 2 2 0 4 3 0 -5 2 1 7 -8 3 -1 1 3 -1 -3 -1 -1 -2
-2 -3 -1 -2 -1 2 3 -0 -1 1 1 -6 3 1 -3 -2 1 1 -17 -13 3 9 26 -0 -6 -2 -1 5 -3 -3 -0 2 1 5 2 -3 3 3 -1 -3 -0 5 -1
-4 -1 -2 -2 -3 -4 -1 1 1 1 -0 -3 1 -1 -0 1 -2 12 2 -2 -6 4 -8 1 1 1 -1 1 2 4 -8 3 -1 -2 11 -15 19 -4 7 1 -3 0 3
-3 -2 0 -1 -1 -1 -4 -0 0 -0 2 0 -1 -1 -0 -2 -1 -0 4 -4 -5 -14 -18 6 6 -1 -4 1 2 1 -2 4 -3 -3 -3 6 -2 -6 10 2 -2 -3 -1
-2 0 -1 -1 -1 1 0 -2 -0 -0 -0 1 -2 -1 -1 -1 -1 1 5 4 -9 -6 3 -11 20 6 3 2 3 3 -2 -0 -5 -1 1 -0 8 2 1 2 4 -7 1
-2 -3 0 -1 -1 -2 1 1 -2 -2 1 1 -1 1 0 -1 -2 2 -3 2 5 3 -6 5 0 39 39 52 6 -1 1 0 3 -3 -3 -1 8 -3 0 -1 -2 -5 3
1 -1 -1 -0 -1 -1 -1 2 1 -2 -0 1 -1 -0 1 1 -2 -0 2 -2 -1 6 1 -2 9 8 11 3 7 35 1 -6 4 -0 -1 1 3 -9 -26 6 -2 -0 -1
1 -0 -0 -1 -0 -0 -0 -1 0 -0 -1 0 0 -1 -1 0 -0 0 -0 -1 -2 -1 1 -11 -14 21 0 -7 5 -0 5 3 -10 0 3 3 6 8 -2 4 -2 -5 4
-0 -0 -1 -2 -1 -1 1 -2 -2 1 -0 -1 1 -0 -2 0 1 -0 -1 -2 1 -4 7 -9 -10 -1 -5 9 -5 8 37 -1 -0 -2 -11 -1 6 0 10 -10 20 -7 -1
-1 -2 2 -1 -0 0 -1 -1 -0 1 0 -1 -0 1 -2 0 -1 1 -1 -2 -2 2 7 -3 -11 10 -24 2 -0 -5 13 16 2 -6 1 -9 7 3 1 24 1 -4 -2
-2 -1 1 -1 -0 0 1 0 1 -1 -1 -0 1 -0 -2 -0 -1 0 -1 -3 3 -6 3 -0 1 -10 0 1 -12 5 -10 12 1 3 3 1 -2 5 -1 -3 1 11 1
0 2 -2 1 -0 2 -0 -1 0 -1 -0 -1 -0 1 0 -1 0 -1 -2 -1 0 1 -5 1 2 6 0 1 1 -5 15 -9 72 -5 -4 7 3 0 2 9 3 3 14
0 -0 1 2 -0 2 1 1 7 2 -0 2 -0 -3 -3 0 -3 3 -1 -0 4 3 0 -10 -10 3 -9 -1 4 -1 3 -9 1 22 1 -3 5 1 2 -1 3 5 0
-1 -0 -1 2 2 1 2 1 0 5 7 6 -0 -1 -1 -3 0 -1 -6 -1 -1 2 3 8 -2 -1 -3 0 -1 -8 -5 -14 6 16 58 5 1 4 -2 -5 -4 0 1
1 2 -1 1 2 1 3 1 0 3 2 -2 -0 1 1 1 0 1 0 -1 -1 -2 -3 0 6 -4 -5 8 4 -3 -2 4 -22 12 10 21 -7 4 3 1 -4 -0 2
-0 -0 3 1 1 -0 3 2 5 2 -1 -2 -1 -2 -0 -1 -2 -1 3 -1 -3 -7 1 -3 0 6 6 0 3 -2 -16 4 2 -18 12 34 -3 9 -1 -6 -7 2 3
3 3 -1 3 1 3 3 6 5 -1 -5 -3 1 -1 -0 -4 -0 -1 3 -1 -2 -5 -2 -5 -6 -6 -2 2 0 -1 1 -3 -4 -15 14 7 8 -0 11 2 3 2 5
Height
1513 1511 1510 1508 1507 1505 1502 1501 1501 1501 1501 1503 1504 1504 1506 1507 1509 1511 1512 1514 1517 1520 1523 1525 1527 1530 1533 1536 1539 1541 1543 1545 1547 1549 1552 1555 1558 1560 1561 1564 1566 1567 1568
1509 1508 1506 1504 1501 1500 1499 1496 1494 1494 1494 1493 1495 1496 1497 1499 1501 1502 1505 1507 1510 1512 1516 1519 1522 1524 1527 1530 1533 1536 1539 1541 1543 1545 1548 1551 1554 1557 1558 1561 1564 1566 1567
1509 1504 1499 1499 1497 1494 1492 1491 1489 1488 1486 1486 1486 1487 1489 1490 1491 1494 1497 1499 1502 1505 1508 1512 1515 1518 1521 1524 1527 1530 1533 1536 1538 1541 1544 1547 1551 1553 1556 1558 1561 1564 1566
1505 1502 1499 1495 1490 1490 1487 1485 1483 1481 1479 1479 1478 1478 1477 1480 1482 1485 1488 1490 1493 1497 1500 1503 1508 1511 1514 1516 1520 1521 1526 1529 1533 1536 1539 1543 1547 1550 1552 1554 1557 1561 1564
1500 1498 1496 1492 1488 1483 1483 1480 1478 1475 1473 1471 1468 1468 1469 1469 1472 1475 1476 1480 1483 1487 1491 1495 1500 1503 1506 1509 1513 1517 1518 1522 1527 1531 1535 1538 1542 1546 1548 1551 1554 1557 1561
1497 1493 1490 1488 1485 1481 1479 1475 1472 1472 1468 1465 1460 1459 1459 1458 1460 1463 1466 1470 1474 1477 1481 1486 1491 1494 1498 1501 1505 1508 1512 1515 1521 1526 1530 1533 1538 1541 1544 1547 1549 1552 1557
1495 1490 1486 1483 1481 1477 1474 1470 1467 1465 1463 1461 1456 1450 1449 1449 1450 1452 1457 1460 1462 1465 1472 1475 1480 1485 1490 1493 1496 1500 1505 1508 1512 1519 1525 1528 1532 1536 1540 1542 1545 1548 1552
1489 1485 1481 1477 1475 1471 1470 1467 1463 1461 1459 1458 1455 1452 1445 1442 1443 1441 1444 1448 1450 1452 1459 1464 1470 1473 1480 1484 1486 1491 1496 1501 1500 1509 1517 1521 1526 1529 1534 1538 1541 1543 1547
1483 1480 1477 1473 1469 1467 1464 1461 1460 1457 1454 1455 1455 1455 1451 1445 1435 1434 1436 1438 1442 1444 1447 1452 1458 1463 1468 1474 1477 1482 1488 1493 1497 1502 1510 1513 1520 1522 1527 1532 1536 1539 1541
1478 1475 1472 1469 1465 1461 1459 1458 1455 1453 1451 1449 1448 1451 1450 1448 1446 1433 1426 1427 1433 1438 1438 1440 1445 1453 1457 1462 1466 1471 1478 1484 1490 1496 1502 1507 1513 1516 1520 1525 1530 1533 1536
1472 1469 1466 1463 1459 1456 1453 1452 1450 1448 1446 1445 1444 1444 1443 1443 1443 1441 1431 1420 1418 1421 1424 1431 1437 1440 1447 1453 1456 1460 1469 1475 1481 1486 1491 1497 1503 1508 1513 1518 1525 1527 1529
1465 1462 1459 1456 1453 1450 1448 1445 1444 1442 1441 1440 1439 1438 1438 1439 1437 1436 1431 1424 1419 1413 1416 1416 1424 1426 1434 1441 1444 1450 1457 1465 1471 1476 1481 1481 1492 1501 1507 1512 1518 1523 1525
1458 1455 1452 1448 1446 1443 1441 1440 1437 1435 1434 1433 1432 1431 1432 1431 1431 1430 1429 1424 1420 1411 1409 1406 1413 1418 1423 1430 1435 1439 1448 1454 1463 1466 1472 1476 1480 1492 1501 1504 1511 1516 1520
1450 1447 1443 1440 1438 1436 1434 1432 1430 1428 1426 1425 1425 1425 1425 1425 1425 1424 1425 1423 1416 1413 1406 1401 1404 1410 1417 1421 1424 1430 1437 1446 1454 1458 1464 1466 1475 1482 1491 1499 1503 1509 1513
1442 1439 1436 1433 1430 1428 1426 1424 1422 1420 1419 1418 1417 1417 1417 1417 1417 1417 1417 1419 1417 1413 1405 1397 1401 1397 1404 1412 1415 1421 1427 1436 1443 1449 1455 1461 1467 1472 1482 1492 1496 1503 1507
1435 1431 1428 1425 1422 1420 1418 1416 1414 1413 1411 1410 1410 1409 1409 1409 1409 1409 1410 1410 1410 1408 1401 1395 1393 1391 1393 1394 1399 1407 1415 1424 1433 1440 1446 1451 1458 1456 1468 1482 1487 1494 1500
1428 1424 1420 1417 1414 1411 1410 1408 1406 1405 1403 1402 1403 1402 1401 1402 1401 1402 1403 1403 1402 1404 1398 1388 1388 1387 1388 1392 1390 1394 1404 1412 1417 1430 1438 1443 1449 1455 1464 1471 1476 1485 1492
1420 1416 1412 1409 1406 1403 1401 1399 1397 1396 1395 1394 1395 1395 1394 1395 1395 1395 1395 1395 1395 1396 1396 1386 1382 1383 1386 1382 1382 1385 1392 1397 1407 1417 1426 1434 1440 1446 1452 1454 1464 1474 1483
1412 1408 1405 1401 1398 1395 1393 1391 1389 1387 1386 1385 1385 1386 1386 1387 1386 1387 1388 1388 1388 1388 1389 1384 1379 1379 1378 1380 1378 1380 1380 1387 1395 1404 1413 1422 1429 1435 1441 1445 1456 1464 1475
1405 1401 1397 1393 1389 1386 1384 1381 1379 1378 1377 1376 1376 1377 1377 1377 1378 1379 1379 1381 1382 1381 1379 1379 1375 1374 1373 1374 1374 1373 1372 1375 1384 1391 1400 1409 1418 1425 1432 1440 1446 1452 1464
1399 1394 1389 1384 1381 1377 1374 1372 1370 1369 1369 1368 1368 1368 1369 1369 1369 1371 1372 1373 1375 1374 1374 1372 1366 1367 1366 1366 1366 1366 1366 1366 1370 1377 1386 1395 1405 1412 1420 1429 1435 1444 1452
1391 1386 1381 1376 1372 1368 1365 1363 1363 1362 1361 1361 1361 1361 1361 1361 1362 1364 1365 1367 1368 1367 1369 1367 1369 1363 1362 1362 1360 1365 1362 1371 1368 1368 1375 1381 1391 1397 1406 1415 1423 1433 1443
1385 1380 1375 1370 1364 1360 1357 1355 1355 1355 1354 1353 1352 1353 1353 1353 1355 1356 1356 1357 1357 1358 1359 1362 1358 1357 1360 1364 1359 1360 1364 1372 1362 1359 1363 1370 1379 1388 1394 1403 1413 1423 1433
1381 1376 1370 1365 1359 1354 1351 1348 1348 1347 1346 1345 1345 1345 1345 1345 1346 1348 1349 1348 1348 1349 1350 1351 1352 1354 1357 1359 1356 1354 1359 1357 1357 1355 1357 1359 1367 1376 1384 1392 1401 1412 1422
1378 1373 1367 1361 1356 1350 1346 1343 1342 1340 1339 1337 1337 1337 1337 1336 1337 1340 1340 1340 1341 1339 1341 1342 1342 1343 1345 1347 1349 1350 1351 1359 1349 1347 1351 1355 1357 1367 1375 1383 1391 1400 1410
1376 1370 1364 1359 1353 1348 1343 1340 1337 1334 1332 1330 1329 1329 1329 1328 1328 1331 1332 1333 1332 1333 1336 1335 1336 1335 1335 1336 1337 1341 1343 1342 1346 1349 1349 1350 1352 1360 1365 1372 1380 1389 1400